Regional Weather Roundup
Issued by NWS San Diego, CA

Home | Current Version | Previous Version | Text Only | Print | Product List | Glossary On
Versions: 1 2 3 4 5 6 7 8 9 10 11 12 13 14 15 16 17 18 19 20 21 22 23 24 25 26 27 28 29 30 31 32 33 34 35 36 37 38 39 40 41 42 43 44 45 46 47 48 49 50
000
ASUS46 KSGX 291711
RWRSGX

SAN DIEGO HOURLY WEATHER ROUNDUP
NATIONAL WEATHER SERVICE SAN DIEGO CA
1000 AM PDT WED JUL 29 2015

NOTE: "FAIR" INDICATES FEW OR NO CLOUDS BELOW 12,000 FEET WITH NO
SIGNIFICANT WEATHER AND/OR OBSTRUCTIONS TO VISIBILITY.

CAZ042-043-060-061-PZZ750-775-291800-

GREATER SAN DIEGO AREA

CITY           SKY/WX    TMP DP  RH WIND       PRES   REMARKS
LINDBERGH FLD  PTSUNNY   73  62  68 CALM      29.96S
POINT LOMA       N/A     72  62  71 W8          N/A
NATIONAL CITY    N/A     73  66  77 NW3       29.95S
CHULA VISTA      N/A     74  67  78 CALM      29.88S
IMPERIAL BEACH MOSUNNY   71  63  75 W10       29.95S
BROWN FIELD    MOSUNNY   74  63  68 VRB6      29.95S
MIRAMAR MCAS   MOSUNNY   77  62  59 CALM      29.95S
MONTGOMERY FLD MOSUNNY   74  62  66 CALM      29.96S

$$

NORTH SAN DIEGO COUNTY

CITY           SKY/WX    TMP DP  RH WIND       PRES   REMARKS
CAMP PENDLETON MOSUNNY   74  62  66 SE5       29.95S
OCEANSIDE AP   MOSUNNY   75  63  66 CALM      29.94S
OCEANSIDE HBR    N/A     71  66  84 SW7       29.97S
VISTA            N/A     69  64  83 SW1       29.93S
CARLSBAD       MOSUNNY   72  63  73 VRB3      29.94S
DEL MAR          N/A     71  66  82 CALM      29.98R
FALLBROOK        N/A     70  68  93 CALM      29.95S
ESCONDIDO        N/A     76  66  70 W1        29.96S
POWAY            N/A     78  65  66 CALM      29.95S

$$

EAST SAN DIEGO COUNTY

CITY           SKY/WX    TMP DP  RH WIND       PRES   REMARKS
RAMONA         SUNNY     75  62  64 W6        29.97S
SANTEE LAKES     N/A     75  65  70 CALM      29.93S
LA MESA          N/A     71  64  77 CALM      29.88S
JAMUL            N/A     74  64  70 CALM      29.93S
DESCANSO N       N/A     87  58  37 E12       29.76S
CAMPO            N/A     88  58  36 NE25G31   29.97R

$$

ORANGE COUNTY AND THE LOS ANGELES BASIN

CITY           SKY/WX    TMP DP  RH WIND       PRES   REMARKS
JOHN WAYNE AP  CLOUDY    72  64  76 S6        29.95R
LAKE FOREST FR   N/A     73  62  68 CALM      29.85S
SANTA ANA        N/A     74  67  77 CALM      29.90R
HUNTINGTON BCH   N/A     72  67  84 SW3       29.97R
LOS ALAMITOS   CLOUDY    73  65  77 VRB5      29.95R
FULLERTON      CLOUDY    75  64  68 CALM      29.94R
LONG BEACH     CLOUDY    74  64  71 VRB5      29.95S
L.A. AP        PTSUNNY   70  63  78 W6        29.95S
L.A. DOWNTOWN  CLOUDY    73  64  73 CALM      29.94S

$$

THE INLAND EMPIRE

CITY           SKY/WX    TMP DP  RH WIND       PRES   REMARKS
CORONA         SUNNY     76  64  66 CALM      29.95F
CHINO          MOSUNNY   78  64  61 CALM      29.96S
ONTARIO        MOSUNNY   75  62  64 CALM      29.96R HAZE
SAN BERNARDINO MOSUNNY   73  59  60 SW7       29.96R HAZE
RIVERSIDE AP   MOSUNNY   76  63  64 CALM      29.96R
MORENO VALLEY    N/A     81  68  65 SE2       29.93S
MARCH ARB      SUNNY     81  64  57 VRB5      29.97R
HORSETHIEF CYN   N/A     78  62  58 NW5       29.95R
PERRIS           N/A     80  65  59 W6        29.97R
MENIFEE          N/A     83  66  56 CALM      30.02S
HEMET EAST       N/A     80  58  46 CALM      29.94R
FRENCH VALLEY  FAIR      77  63  61 S3        29.97R
TEMECULA         N/A     74  65  75 SW2       29.93S

$$

SAN BERNARDINO AND RIVERSIDE COUNTY MOUNTAINS

CITY           SKY/WX    TMP DP  RH WIND       PRES   REMARKS
BIG BEAR AP    CLOUDY    70  50  49 SE6       30.34R
ANGELUS OAKS     N/A     72  55  54 CALM      29.82R
PINE COVE        N/A     76  55  47 SE8       29.86R

$$

SOUTHERN DESERT INCLUDING THE COACHELLA VALLEY

CITY           SKY/WX    TMP DP  RH WIND       PRES   REMARKS
PALM SPRINGS   MOSUNNY   92  70  48 E12       29.97R HX  97
THOUSAND PALMS   N/A     91  70  50 SE8       29.93R HX  96
PALM DESERT      N/A     92  73  52 CALM      28.41S HX 101
THERMAL        SUNNY     94  71  47 S9        29.90S HX 101
BLYTHE         MOSUNNY   94  65  38 S9        29.93R HX  96
IMPERIAL AP    MOSUNNY   94  72  48 S12G21    29.89S HX 102
EL CENTRO NAS  PTSUNNY   95  72  47 SE13      29.91S HX 103
YUMA AZ        CLOUDY    92  68  45 S7        29.91R HX  96
MEXICALI       PTSUNNY   90  75  62 SE3       29.91R HX 100

$$

UPPER DESERT

CITY           SKY/WX    TMP DP  RH WIND       PRES   REMARKS
VICTORVILLE AP SUNNY     90  30  12 CALM      30.06R
HESPERIA         N/A     89  40  18 E3        29.99S
APPLE VALLEY     N/A     88  44  21 CALM      30.06S
PALMDALE         N/A    N/A N/A N/A MISG      30.04R
LANCASTER      SUNNY     86  35  16 CALM      30.03S
EDWARDS AFB    MOSUNNY   83  39  20 N7        30.00F
DAGGETT        SUNNY     92  29  10 NW6       29.99F
29 PALMS N     SUNNY     92  54  27 SE10      30.08R
NEEDLES        SUNNY    100  57  23 S13G18    29.95R HX  99

$$

REGIONAL REPORTS

CITY           SKY/WX    TMP DP  RH WIND       PRES   REMARKS
SANTA BARBARA  CLOUDY    65  60  84 VRB3      29.95R HAZE
SANDBERG       SUNNY     88  14   6 MISG      30.17R
LAS VEGAS NV   MOSUNNY   94  29  10 E7        30.00S
PHOENIX AZ     CLOUDY    92  62  36 SW5       29.97S
TIJUANA        SUNNY     73  59  60 W3        29.98R
ENSENADA NW      N/A     72  32  23 SW6       29.93S

$$

OFFSHORE ISLANDS

CITY           SKY/WX    TMP DP  RH WIND       PRES   REMARKS
CATALINA ARPT  PTSUNNY   67  61  81 VRB5      30.00R
SAN CLEMENTE I PTSUNNY   67  59  75 W6        29.98R
SAN NICOLAS IS CLOUDY   N/A N/A N/A NW6       29.97R

$$

MARINE AND OFFSHORE BUOY REPORTS

STATION/POSITION SKY/WX   TEMP    WIND        PRES    SWELL
                          AIR SEA DIR/SP/G            HT/PER/DIR
                          (F)     (DEG/KT/KT) (MB)    (FT/S/D)
TANNER BANKS               64 68  340/  8/ 10 1014.7R   5/210/15
S CLEMENTE BASIN           67 70  240/  4/  4 1014.2R   3/230/15
SAN NICOLAS IS.               65                N/A     3/220/17
SO. S. ROSA ISLA           63 67  320/  6/  8 1013.7R   5/16
W. S. BARBARA CH           59 61  320/  8/ 10 1013.8R   5/200/16
M. S. BARBARA CH           62 66  220/  4/  6 1014.6R
S. MONICA BASIN            66 71  300/  2/  4 1014.2R   3/210/16
S PEDRO CHANNEL               71                N/A     2/240/15
DANA POINT                    72                N/A     3/200/20
OCEANSIDE OFFSHR              72                N/A     3/210/17
TORREY PINES OTR              72                N/A     3/230/15
LA JOLLA 1                 70 69  280/  2/  5 1013.9R
MISSION BAY BUOY              71                N/A     3/210/15
SAN DIEGO BAY                 74              1014.6R
POINT LOMA SOUTH              72                N/A     3/220/15

$$




USA.gov is the U.S. government's official web portal to all federal, state and local government web resources and services.